NOAA 19 - Orbit

View from above orbital plane
View from above orbital plane
View from above satellite
View from above satellite

Ground track
Ground track

The orbit data is extracted from the following two-line orbital elements,

1 33591U 09005A   13138.48018844  .00000298  00000-0  18828-3 0  8020
2 33591 098.9021 080.7816 0014754 150.2261 345.2630 14.11500130220306
Epoch (UTC): 18 May 2013 11:31:28
Eccentricity: 0.0014754
inclination: 98.9021°
perigee height: 843 km
apogee height: 865 km
right ascension of ascending node: 80.7816°
argument of perigee: 150.2261°
revolutions per day: 14.11500130
mean anomaly at epoch: 345.2630°
orbit number at epoch: 22030

The dashed part of the orbit path shows where the satellite is in the earth's shadow,  

Developed and maintained by Chris Peat, Heavens-Above GmbH. Please read the updated FAQ before sending e-mail. Imprint. DLR